Bloomington, IL

3:55 AM CDT on July 27, 2017 (GMT -0500)
Central Ill Regional

Weather History for KBMI - December, 2012

Change the Weather History Date:

Friday, December 7, 2012

  Actual Average Record
Temperature  
Mean Temperature 43 °F -  
Max Temperature 45 °F 32 °F 51 °F (2004)
Min Temperature 41 °F 20 °F 0 °F (2005)
Degree Days  
Heating Degree Days 22    
Moisture  
Dew Point 43 °F    
Average Humidity 99    
Maximum Humidity 100    
Minimum Humidity 93    
Precipitation  
Precipitation 0.05 in - - ()
Sea Level Pressure  
Sea Level Pressure 29.92 in    
Wind  
Wind Speed 7 mph (ENE)    
Max Wind Speed 13 mph    
Max Gust Speed -    
Visibility 2 miles    
Events Fog , Rain    
Averages and records for this station are not official NWS values.
T = Trace of Precipitation, MM = Missing Value Source: NWS Daily Summary

Daily Weather History Graph

Daily Weather History Graph

Search for Another Location

Airport or City:

Trip Planner

Search our weather history database for the weather conditions in past years. The results will help you decide how hot, cold, wet, or windy it might be!

Date:

Astronomy

Dec. 07, 2012 Rise Set
Actual Time 7:05 AM CST 4:28 PM CST
Civil Twilight 6:35 AM CST 4:59 PM CST
Nautical Twilight 6:01 AM CST 5:33 PM CST
Astronomical Twilight 5:28 AM CST 6:06 PM CST
Moon 12:23 AM CST (12/7) 12:26 PM CST (12/7)
Length of Visible Light 10h 24m
Length of Day
9h 22m
Last Quarter, 38% of the Moon is Illuminated
Dec 7
Last Quarter
Dec 13
New
Dec 19
First Quarter
Dec 28
Full
Jan 4
Last Quarter

Hourly Weather History & Observations

Time (CST) Temp. Windchill Dew Point Humidity Pressure Visibility Wind Dir Wind Speed Gust Speed Precip Events Conditions
12:56 AM 41.9 °F 40.0 °F 39.9 °F 93% 29.96 in 7.0 mi SW 3.5 mph - 0.00 in Rain Light Rain
1:56 AM 41.9 °F 38.2 °F 41.0 °F 97% 29.98 in 4.0 mi SW 5.8 mph - 0.02 in Rain Light Rain
2:08 AM 42.8 °F 36.2 °F 41.0 °F 93% 29.97 in 6.0 mi SW 12.7 mph - 0.00 in Rain Light Rain
2:56 AM 41.9 °F 38.2 °F 41.0 °F 97% 29.99 in 5.0 mi WSW 5.8 mph - 0.00 in   Overcast
3:19 AM 42.8 °F 40.1 °F 41.0 °F 93% 29.95 in 5.0 mi SW 4.6 mph - N/A   Overcast
3:56 AM 41.9 °F 38.2 °F 41.9 °F 100% 29.96 in 3.0 mi NW 5.8 mph - 0.00 in Rain Light Rain
4:23 AM 42.8 °F 40.1 °F 42.8 °F 100% 29.94 in 4.0 mi NNW 4.6 mph - 0.00 in Rain Light Rain
4:49 AM 42.8 °F 41.1 °F 42.8 °F 100% 29.93 in 2.0 mi North 3.5 mph - 0.01 in Rain Light Rain
4:56 AM 43.0 °F 41.3 °F 41.9 °F 96% 29.96 in 3.0 mi North 3.5 mph - 0.01 in Rain Light Rain
5:22 AM 42.8 °F 40.1 °F 42.8 °F 100% 29.93 in 2.5 mi NE 4.6 mph - 0.00 in Rain Light Rain
5:37 AM 42.8 °F 40.1 °F 42.8 °F 100% 29.93 in 1.8 mi ESE 4.6 mph - 0.01 in Rain Light Rain
5:56 AM 41.9 °F 37.5 °F 41.9 °F 100% 29.94 in 2.0 mi East 6.9 mph - 0.01 in   Scattered Clouds
6:56 AM 41.9 °F 39.0 °F 41.9 °F 100% 29.96 in 1.5 mi Variable 4.6 mph - 0.00 in Rain Light Rain
7:02 AM 42.8 °F 38.0 °F 42.8 °F 100% 29.92 in 2.0 mi NE 8.1 mph - 0.00 in Rain Light Rain
7:38 AM 42.8 °F 37.5 °F 42.8 °F 100% 29.92 in 1.2 mi NE 9.2 mph - 0.01 in   Scattered Clouds
7:49 AM 42.8 °F 37.5 °F 42.8 °F 100% 29.92 in 1.2 mi NNE 9.2 mph - 0.01 in   Mostly Cloudy
7:56 AM 41.9 °F 35.4 °F 41.9 °F 100% 29.95 in 1.2 mi NNE 11.5 mph - 0.01 in   Mostly Cloudy
8:56 AM 43.0 °F 38.2 °F 43.0 °F 100% 29.97 in 1.0 mi North 8.1 mph - N/A   Overcast
9:31 AM 42.8 °F 38.6 °F 42.8 °F 100% 29.95 in 0.8 mi NE 6.9 mph - N/A   Overcast
9:56 AM 43.0 °F 38.2 °F 43.0 °F 100% 29.97 in 1.0 mi East 8.1 mph - N/A   Overcast
10:56 AM 43.9 °F 39.3 °F 43.9 °F 100% 29.96 in 1.0 mi East 8.1 mph - N/A   Overcast
11:30 AM 44.6 °F 39.2 °F 42.8 °F 93% 29.91 in 1.0 mi East 10.4 mph - N/A   Overcast
11:32 AM 44.6 °F 39.7 °F 42.8 °F 93% 29.91 in 1.8 mi East 9.2 mph - N/A   Overcast
11:56 AM 45.0 °F 39.7 °F 43.9 °F 96% 29.91 in 1.5 mi East 10.4 mph - N/A   Overcast
12:56 PM 43.9 °F 40.5 °F 43.0 °F 97% 29.91 in 1.5 mi East 5.8 mph - N/A   Overcast
1:56 PM 43.9 °F 39.3 °F 43.9 °F 100% 29.90 in 1.0 mi ENE 8.1 mph - 0.00 in   Overcast
2:56 PM 43.9 °F 38.3 °F 43.9 °F 100% 29.89 in 1.0 mi ENE 10.4 mph - N/A   Overcast
3:56 PM 43.9 °F 37.5 °F 43.9 °F 100% 29.88 in 1.0 mi NE 12.7 mph - 0.00 in Rain Light Rain
4:56 PM 43.9 °F 37.9 °F 43.9 °F 100% 29.89 in 1.5 mi ENE 11.5 mph - 0.00 in   Overcast
5:56 PM 43.9 °F 38.3 °F 43.9 °F 100% 29.89 in 1.5 mi ENE 10.4 mph - N/A   Overcast
6:34 PM 44.6 °F 39.7 °F 44.6 °F 100% 29.87 in 1.2 mi ENE 9.2 mph - N/A   Overcast
6:56 PM 44.6 °F 39.7 °F 44.6 °F 100% 29.91 in 1.0 mi East 9.2 mph - 0.00 in Rain Light Rain
7:33 PM 44.6 °F 40.2 °F 44.6 °F 100% 29.88 in 1.2 mi East 8.1 mph - 0.00 in   Overcast
7:40 PM 44.6 °F 39.2 °F 44.6 °F 100% 29.87 in 1.0 mi East 10.4 mph - 0.00 in   Overcast
7:56 PM 43.0 °F 37.7 °F 43.0 °F 100% 29.90 in 0.5 mi East 9.2 mph - 0.00 in Fog Fog
8:05 PM 42.8 °F 38.0 °F 42.8 °F 100% 29.87 in 0.2 mi East 8.1 mph - N/A Fog Fog
8:26 PM 42.8 °F 38.0 °F 42.8 °F 100% 29.87 in 0.5 mi ENE 8.1 mph - N/A Fog Fog
8:56 PM 43.0 °F 38.2 °F 43.0 °F 100% 29.89 in 0.5 mi ENE 8.1 mph - N/A Fog Fog
9:36 PM 42.8 °F 38.0 °F 42.8 °F 100% 29.87 in 0.2 mi East 8.1 mph - N/A Fog Fog
9:49 PM 42.8 °F 38.6 °F 42.8 °F 100% 29.87 in 0.5 mi East 6.9 mph - N/A Fog Fog
9:56 PM 41.9 °F 38.2 °F 41.9 °F 100% 29.90 in 0.5 mi ENE 5.8 mph - N/A Fog Fog
10:21 PM 42.8 °F 37.5 °F 42.8 °F 100% 29.86 in 0.2 mi ENE 9.2 mph - N/A Fog Fog
10:49 PM 42.8 °F 39.3 °F 42.8 °F 100% 29.87 in 0.5 mi NE 5.8 mph - N/A Fog Fog
10:56 PM 41.9 °F 37.5 °F 41.9 °F 100% 29.90 in 0.5 mi NE 6.9 mph - N/A Fog Fog
11:56 PM 41.9 °F 39.0 °F 41.9 °F 100% 29.89 in 0.5 mi ENE 4.6 mph - 0.00 in Fog Fog